Location: ?????
(31.8092°N, 35.2590°E)
Time: 13:47:32
(UTC+00:00)

Cosmos 1190 Rocket - Pass Details

Date: 20 June 2021
Orbit: 756 x 781 km, 74.1° (Epoch: 31 July)

Event Time Altitude Azimuth Distance (km) Brightness Sun altitude
Rises 17:12:22 0° 347° (NNW) 3,259 8.0 -5.4°
Reaches altitude 10° 17:14:47 10° 350° (N) 2,331 7.2 -5.8°
Maximum altitude 17:20:03 67° 73° (ENE) 841 4.1 -6.8°
Drops below altitude 10° 17:25:19 10° 156° (SSE) 2,324 6.0 -7.7°
Enters shadow 17:26:38 - 157° (SSE) 2,831 6.4 -7.9°
